This is the latest recevied weather packets stored in our database for station/object KC9DRE. If no packets are shown the sender has not sent any weather packets the latest 10 day(s).
| Time | Temp. | Humidity | Pressure | Rain* | Wind** | Luminosity | Snow |
|---|---|---|---|---|---|---|---|
| 1777217355 | 15° C | 85% | 1017.3 hPa | 0 mm | - | 225 W/m² | - |
| 1777217050 | 15° C | 85% | 1017.3 hPa | 0 mm | - | 221 W/m² | - |
| 1777216747 | 15° C | 84% | 1017.2 hPa | 0 mm | - | 222 W/m² | - |
| 1777216443 | 15° C | 86% | 1017.3 hPa | 0 mm | - | 211 W/m² | - |
| 1777216143 | 14.44° C | 86% | 1017.3 hPa | 0 mm | - | 216 W/m² | - |
| 1777215837 | 14.44° C | 86% | 1017.3 hPa | 0 mm | - | 217 W/m² | - |
| 1777215533 | 14.44° C | 86% | 1017.1 hPa | 0 mm | - | 199 W/m² | - |
| 1777215230 | 14.44° C | 87% | 1017.1 hPa | 0 mm | - | 188 W/m² | - |
| 1777214925 | 14.44° C | 86% | 1017.2 hPa | 0 mm | - | 195 W/m² | - |
| 1777214625 | 14.44° C | 86% | 1017.1 hPa | 0 mm | - | 195 W/m² | - |
| 1777214320 | 15° C | 87% | 1017.2 hPa | 0 mm | - | 180 W/m² | - |
| 1777214018 | 14.44° C | 87% | 1017.4 hPa | 0 mm | - | 192 W/m² | - |
| 1777213713 | 14.44° C | 86% | 1017.4 hPa | 0 mm | - | 166 W/m² | - |
| 1777213410 | 14.44° C | 87% | 1017.3 hPa | 0 mm | - | 144 W/m² | - |
| 1777213107 | 14.44° C | 87% | 1017.4 hPa | 0 mm | - | 138 W/m² | - |
| 1777212804 | 14.44° C | 87% | 1017.5 hPa | 0 mm | - | 131 W/m² | - |
| 1777212501 | 14.44° C | 87% | 1017.3 hPa | 0 mm | - | 142 W/m² | - |
| 1777212200 | 14.44° C | 87% | 1017.3 hPa | 0 mm | - | 136 W/m² | - |
| 1777211895 | 14.44° C | 88% | 1017.3 hPa | 0 mm | - | 120 W/m² | - |
| 1777211593 | 14.44° C | 87% | 1017.2 hPa | 0 mm | - | 124 W/m² | - |
| 1777211290 | 14.44° C | 87% | 1017.2 hPa | 0 mm | - | 130 W/m² | - |
| 1777210986 | 14.44° C | 87% | 1017.3 hPa | 0 mm | - | 134 W/m² | - |
| 1777210681 | 14.44° C | 87% | 1017.3 hPa | 0 mm | - | 113 W/m² | - |
| 1777210377 | 14.44° C | 88% | 1017.4 hPa | 0 mm | - | 108 W/m² | - |
| 1777210075 | 14.44° C | 87% | 1017.2 hPa | 0 mm | - | 100 W/m² | - |
* Rain latest hour (hover to see other rain measurements)
** Current wind speed in m/s (hover to see current wind gust speed)